Location: Bouill�
(47.0254°N, 0.3461°W)
Time: 19:33:14
(UTC+00:00)

Daily predictions for brighter satellites

Satellite Brightness Start Highest point End
(mag) Time Altitude Azimuth Time Altitude Azimuth Time Altitude Azimuth
ERS-2 2.5 19:51:04 10° N 19:54:42 68° WNW 19:58:17 10° SSW
SPOT 3 Rocket 4.3 19:50:13 10° SE 19:54:56 38° ENE 19:59:40 10° N
CZ-4 R/B 4.4 19:53:36 10° SW 19:55:55 15° W 19:58:14 10° NW
Cosmos 1743 Rocket 3.5 19:52:14 10° N 19:56:35 73° E 20:00:56 10° SSE
Cosmos 1844 4.3 19:51:30 10° S 19:56:42 37° ESE 20:01:53 10° NE
Resurs 1-3 3.7 19:52:39 10° SSE 19:56:58 61° ENE 20:01:19 10° N
Cosmos 968 Rocket 3.7 19:52:29 10° S 19:57:32 51° ESE 20:02:36 10° NNE
BREEZE-M DEB (TANK) 3.8 19:53:14 10° W 19:57:33 76° S 20:04:31 10° ESE
ATLAS 5 CENTAUR R/B 3.0 19:53:59 10° NNW 19:59:07 43° NE 20:05:09 10° ESE
BREEZE M DEB (TANK) 3.8 19:59:49 10° WSW 20:03:18 83° SSE 20:14:19 10° ENE
Cosmos 1486 Rocket 4.3 19:59:59 10° S 20:05:05 48° ESE 20:10:13 10° NNE
Intercosmos 25 Rocket 4.2 19:58:56 10° N 20:05:58 69° ENE 20:10:13 10° SSE
Cosmos 1500 Rocket 3.7 20:04:09 10° N 20:08:35 83° W 20:12:56 10° S
Cosmos 1833 Rocket 4.4 20:04:34 10° N 20:08:44 20° NE 20:12:53 10° E
IGS 5A 4.1 20:04:57 10° SE 20:08:49 40° ENE 20:12:44 10° N
Cosmos 2221 3.3 20:06:38 10° SSW 20:10:51 56° WNW 20:15:08 10° N
S3M 4.2 20:05:29 10° SSE 20:11:39 54° E 20:17:48 10° NNE
BREEZE-M R/B 2.4 20:09:15 10° SW 20:11:49 34° SSE 20:14:04 10° E
USA 186 3.8 20:11:17 10° SSW 20:13:18 20° W 20:15:14 10° NW
FALCON 9 DEB 4.2 20:14:47 10° WNW 20:17:29 29° SW 20:20:03 11° SSE
Cosmos 1933 3.8 20:18:13 10° SSE 20:22:02 42° E 20:25:52 10° NNE
USA 305 4.5 20:19:01 10° WNW 20:22:54 32° N 20:26:45 10° ENE
USA 245 4.0 20:23:48 13° E 20:24:38 15° ENE 20:26:06 10° NNE
Cosmos 1242 Rocket 3.1 20:24:13 10° SSE 20:27:33 37° E 20:30:52 10° NNE
OBJECT-B 2.9 20:25:08 10° SSW 20:27:54 26° W 20:30:43 10° NW
Cosmos 1553 Rocket 4.1 20:24:09 10° SSW 20:30:16 80° W 20:36:32 10° N
Cosmos 1437 Rocket 2.8 20:27:36 10° SSW 20:31:27 84° WNW 20:35:25 10° N
BREEZE M DEB (TANK) 2.8 20:25:00 10° W 20:31:29 59° N 20:33:59 10° E
FALCON 9 DEB 4.4 20:29:56 10° W 20:32:33 26° SW 20:34:36 14° SSE
Resurs 01 Rocket 1.6 20:29:52 10° SSE 20:34:18 87° ENE 20:38:47 10° NNW
OE (NEXTSAT) 4.2 20:33:32 10° W 20:37:00 76° S 20:39:58 14° E
Spot 2 Rocket 4.1 20:34:12 15° SE 20:38:02 41° ENE 20:42:45 10° N
DELTA 2 R/B (1) 4.4 20:33:10 10° WSW 20:38:11 35° S 20:41:51 17° SE
Sich 1 3.0 20:34:32 10° N 20:38:53 86° E 20:43:00 11° S
COSMOS 2406 4.4 20:34:30 10° NNW 20:39:30 31° NE 20:43:43 13° ESE
Meteor 1-20 Rocket 4.2 20:36:16 10° N 20:41:57 84° E 20:47:11 12° SSE
Cosmos 2082 Rocket 4.0 20:37:54 10° N 20:41:57 20° NE 20:45:58 10° E
USA 306 4.4 20:38:14 10° WNW 20:42:09 34° N 20:46:04 10° ENE
BREEZE-M DEB (TANK) 4.4 20:43:08 10° SW 20:44:11 12° SSW 20:45:27 10° S
CZ-4C R/B 3.5 20:37:40 10° NW 20:44:25 49° NE 20:51:18 14° ESE
Cosmos 1500 4.3 20:42:10 10° NNE 20:45:28 28° ENE 20:47:10 20° ESE
Cosmos 1782 3.2 20:43:16 16° SSE 20:46:07 42° E 20:49:54 10° NNE
ERS-1 Rocket 3.7 20:50:52 19° SE 20:53:58 38° ENE 20:58:36 10° N
Cosmos 1503 Rocket 3.9 20:50:42 10° SSW 20:55:50 75° ESE 21:01:04 10° NNE
SPOT 5 3.7 20:52:52 19° SE 20:55:58 39° ENE 21:00:49 10° N
Intercosmos 24 4.1 20:54:29 10° SSW 20:58:18 61° W 21:01:50 10° N
USA 290 2.7 20:57:59 10° NNW 21:01:12 55° WSW 21:02:58 23° S
Cosmos 1151 Rocket 3.0 20:58:02 15° S 21:01:30 65° E 21:05:52 10° NNE
CREW DRAGON DEMO-1 DEB 4.3 21:00:22 10° WNW 21:02:46 29° N 21:04:38 14° ENE
Cosmos 1602 3.7 21:00:04 10° N 21:03:57 88° W 21:06:20 22° S
Terra 2.8 21:02:23 21° ESE 21:04:47 32° ENE 21:09:01 10° N
USA 307 4.2 21:03:36 10° NW 21:07:37 38° NNE 21:11:26 11° E
Cosmos 2278 Rocket 3.0 21:05:44 22° SE 21:08:03 30° ESE 21:12:55 10° NE
CZ-2C R/B 3.8 21:08:07 10° NNE 21:12:35 79° WNW 21:17:07 10° SSW
SL-4 R/B 4.0 21:15:47 10° W 21:19:13 22° SW 21:21:08 17° SSW
Cosmos 1515 Rocket 3.9 21:17:35 30° SE 21:19:16 45° E 21:23:29 10° NNE
X-37B 0.9 21:16:46 10° W 21:19:52 48° SSW 21:20:09 46° S
Cosmos 1844 Rocket 3.8 21:14:56 10° SW 21:20:15 46° NW 21:25:39 10° NNE
Cosmos 2084 3.6 21:17:53 19° S 21:20:31 47° ESE 21:24:36 10° NE
SPOT 1/Viking Rocket 3.8 21:16:47 19° S 21:20:35 68° WSW 21:25:48 10° NNW
USA 308 4.0 21:17:05 10° NW 21:21:10 41° NNE 21:24:24 15° E
SWARM C 4.5 21:18:48 10° N 21:22:07 65° E 21:22:53 46° SSE
SWARM A 4.2 21:18:55 10° N 21:22:13 67° E 21:23:01 46° SSE
ARIANE 5 R/B 2.5 21:20:40 28° SSE 21:22:56 86° W 21:27:18 10° NNW
Cosmos 1437 2.2 21:25:46 66° S 21:26:06 84° ESE 21:28:58 10° NNE
JB-3 4.2 21:22:19 10° NNE 21:26:16 73° ESE 21:27:56 32° S
Cosmos 1354 Rocket 4.2 21:21:58 10° SSW 21:27:11 71° WNW 21:32:27 10° NNE
Cosmos 1633 Rocket 3.5 21:24:25 10° NNW 21:28:44 58° W 21:31:23 22° SSW
Cosmos 1812 2.7 21:31:31 42° SSE 21:32:37 64° E 21:36:28 10° NNE
Cosmos 1470 Rocket 3.6 21:33:31 10° N 21:38:02 81° W 21:39:57 34° S
Cosmos 2184 Rocket 4.1 21:32:11 10° N 21:38:23 61° ENE 21:41:19 31° SSE
Meteor 1-5 Rocket 4.0 21:34:06 10° N 21:39:34 81° ENE 21:42:00 34° SSE
Cosmos 1328 Rocket 3.9 21:36:50 18° SSW 21:40:02 63° W 21:44:27 10° N
NOSS 3-4 (A) 4.2 21:35:28 10° NW 21:42:13 56° NE 21:47:02 23° ESE
NOSS 3-4 (C) 4.2 21:35:34 10° NW 21:42:19 56° NE 21:47:09 23° ESE
ATLAS 5 CENTAUR R/B 2.9 21:38:29 10° NW 21:43:57 48° WSW 21:47:13 26° S
CARTOSAT-1 4.1 21:44:08 29° SSW 21:46:04 54° W 21:50:18 10° NNW
Cosmos 2074 Rocket 4.0 21:40:03 10° N 21:46:22 72° E 21:49:23 33° SSE
NOSS 3-3 (A) 3.9 21:45:38 10° SW 21:51:24 85° NW 21:58:05 10° NE
NOSS 3-3 (C) 3.9 21:45:45 10° SW 21:51:31 86° NW 21:58:11 10° NE
Cosmos 1666 2.5 21:47:55 10° N 21:51:40 84° E 21:52:11 64° SSE
Cosmos 1933 Rocket 3.4 21:48:13 10° N 21:52:35 86° W 21:53:49 47° S
Cosmos 1833 Rocket 2.6 21:47:45 10° NNW 21:53:27 87° WSW 21:55:42 39° SSE
Nadezhda 1 Rocket 4.3 21:51:52 34° SE 21:54:15 51° E 22:00:17 10° NNE
ATLAS 2AS CENTAUR R/B 3.6 21:48:34 10° NW 21:55:44 45° NE 22:00:32 19° ESE
Cosmos 1743 4.4 21:53:48 10° NNE 21:56:46 21° ENE 21:56:52 21° ENE
BREEZE-M DEB (TANK) 2.9 21:56:47 10° WNW 21:57:57 31° WNW 21:57:57 31° WNW
BREEZE-M DEB (TANK) 4.3 21:52:05 10° W 22:01:26 51° NNW 22:04:22 10° ENE
Cosmos 1538 Rocket 4.0 21:56:43 10° NNW 22:02:07 82° WSW 22:03:56 43° SSE
USA 215 4.2 21:56:29 10° E 22:02:36 44° NNE 22:08:43 10° NW
USA 305 3.2 21:59:09 10° NW 22:03:23 63° NNE 22:04:41 41° E
Iridium 4 Rocket 3.8 22:01:48 31° S 22:04:39 80° W 22:10:36 10° N
Cosmos 1610 Rocket 4.5 22:02:18 10° N 22:08:26 68° E 22:10:38 41° SSE
Resurs 01 Rocket 4.4 22:10:26 10° W 22:11:26 11° W 22:12:26 10° WNW
Cosmos 158 Rocket 3.7 22:09:29 10° NNW 22:14:24 80° ENE 22:15:27 55° SE
Cosmos 1733 Rocket 4.4 22:12:04 10° NNE 22:15:43 25° ENE 22:16:02 25° ENE
SJ 16-02 1.2 22:15:14 55° SSW 22:16:12 90° E 22:20:40 10° NNE
Cosmos 2228 Rocket 2.9 22:17:34 65° SSE 22:18:11 81° E 22:22:39 10° N
Cosmos 1680 Rocket 4.0 22:14:48 10° NNW 22:20:01 52° ENE 22:21:27 40° ESE
Meteor 1-27 Rocket 3.8 22:18:38 45° SSE 22:20:24 70° E 22:26:18 10° NNE
USA 306 2.9 22:18:16 10° WNW 22:22:33 78° NNE 22:23:05 65° E
COSMOS 2406 3.6 22:18:35 10° NW 22:24:04 52° WSW 22:25:47 38° SSW
Cosmos 2082 Rocket 2.1 22:21:11 10° NNW 22:26:51 89° ENE 22:28:19 52° SSE
ERS-1 Rocket 4.3 22:30:51 23° SW 22:32:50 30° W 22:37:15 10° NNW
H-2A R/B 4.3 22:28:54 10° N 22:32:55 46° WNW 22:34:17 33° WSW
CZ-4C R/B 3.3 22:26:09 10° NW 22:33:17 55° WSW 22:36:28 36° S
SPOT 5 4.4 22:32:05 23° SW 22:34:05 31° W 22:38:42 10° NNW
Cosmos 1271 Rocket 3.6 22:35:28 41° WSW 22:36:11 46° WNW 22:40:05 10° N
Terra 3.0 22:41:15 28° SW 22:42:29 33° W 22:46:47 10° NNW
Meteor 1-11 Rocket 4.2 22:37:29 10° NNW 22:43:21 58° W 22:45:14 41° SSW
Okean 1 4.4 22:46:34 35° ENE 22:46:34 35° ENE 22:49:31 10° NNE
USA 307 2.9 22:43:37 10° WNW 22:47:31 71° W 22:47:31 71° W
Cosmos 1340 Rocket 2.9 22:45:49 10° NNW 22:49:40 78° NNW 22:49:40 78° NNW
Cosmos 2278 Rocket 3.0 22:47:29 15° SW 22:51:55 48° NW 22:57:24 10° NNE
Spot 4 3.8 22:53:27 68° SE 22:53:57 76° ENE 22:58:49 10° N
Cosmos 923 Rocket 4.0 22:49:57 10° NNW 22:55:11 66° WSW 22:55:53 59° SSW
Cosmos 1544 3.8 22:52:18 10° NNW 22:55:12 49° NW 22:55:12 49° NW
Cosmos 1862 Rocket 4.2 22:57:00 44° ENE 22:57:00 44° ENE 23:00:37 10° NNE
Cosmos 1898 Rocket 3.4 22:57:39 66° SE 22:58:05 70° ESE 23:03:24 10° NNE
Cosmos 1536 3.7 22:55:46 10° NNW 22:59:30 42° W 22:59:30 42° W
Cosmos 1869 Rocket 4.4 22:56:47 10° NNW 23:00:47 38° W 23:01:03 37° W
USA 308 3.4 22:57:06 10° WNW 23:00:29 50° W 23:00:29 50° W
Cosmos 2369 Rocket 3.5 23:03:27 25° E 23:03:27 25° E 23:07:29 10° NE
COBE Rocket 4.5 23:07:04 44° E 23:07:45 47° ENE 23:12:39 10° N
Meteor 2-9 Rocket 4.3 23:03:45 10° N 23:09:35 69° ENE 23:10:35 57° SE
SL-8 Rocket 3.9 23:03:43 10° N 23:10:06 83° E 23:11:34 56° SSE
Cosmos 1943 Rocket 2.3 23:11:55 54° ESE 23:12:03 54° ESE 23:17:31 10° NE
Cosmos 1975 3.6 23:08:53 10° N 23:12:12 44° NE 23:12:12 44° NE
Cosmos 2084 Rocket 4.1 23:08:49 10° NNW 23:12:58 49° NE 23:13:20 47° ENE
ALOS 2 2.7 23:16:05 70° ENE 23:16:05 70° ENE 23:20:19 10° N
DNEPR-1 R/B 4.2 23:19:56 57° ESE 23:19:56 57° ESE 23:24:45 10° NE
Cosmos 1707 Rocket 4.0 23:20:01 53° W 23:20:07 53° WNW 23:24:27 10° N
Cosmos 44 3.4 23:14:47 10° NW 23:20:16 87° NE 23:20:48 73° SE
Meteor 2-4 Rocket 4.2 23:20:31 45° ESE 23:21:03 46° E 23:26:27 10° NNE
Cosmos 990 Rocket 4.3 23:20:02 50° WSW 23:21:10 64° WNW 23:26:24 10° NNE
Okean 1-7 4.2 23:30:15 32° ENE 23:30:15 32° ENE 23:33:26 10° NNE
Cosmos 372 Rocket 4.2 23:30:36 53° E 23:30:36 53° E 23:35:19 10° NNE
Cosmos 1743 4.2 23:29:08 10° NNW 23:31:55 30° WNW 23:31:55 30° WNW
NOSS 3-4 (A) 4.4 23:26:31 10° NW 23:33:08 43° WSW 23:34:28 39° SW
NOSS 3-4 (C) 4.4 23:26:37 10° NW 23:33:14 43° WSW 23:34:35 40° SW
Meteor 1-18 Rocket 4.1 23:33:04 69° S 23:33:48 87° E 23:39:27 10° NNE
Cosmos 2112 Rocket 4.5 23:28:48 10° NNW 23:33:56 47° WSW 23:34:10 47° WSW
Cosmos 1238 Rocket 4.0 23:29:24 10° NNW 23:35:41 61° W 23:36:39 54° SW
SL-24 R/B - RUBIN 2 3.9 23:32:12 10° NW 23:37:28 67° WSW 23:37:28 67° WSW
Cosmos 864 Rocket 4.4 23:32:39 10° N 23:38:50 78° W 23:39:57 61° SSW
SeaSat 1 3.1 23:34:13 10° NE 23:38:19 40° E 23:38:19 40° E
Cosmos 2242 Rocket 4.2 23:40:22 47° ENE 23:40:22 47° ENE 23:44:09 10° NNE
Cosmos 1959 Rocket 4.5 23:35:27 10° NNW 23:41:42 72° W 23:42:51 58° SSW
USA 215 3.2 23:42:21 37° ESE 23:45:15 88° NE 23:51:50 10° NW
ATLAS 2AS CENTAUR R/B 2.8 23:39:48 10° NW 23:46:54 55° WSW 23:47:57 50° SSW
Cosmos 2297 3.9 23:45:51 48° WSW 23:47:16 65° WNW 23:52:56 10° NNE
Cosmos 1733 Rocket 4.3 23:49:41 10° NNW 23:53:07 31° WNW 23:53:07 31° WNW
Cosmos 2181 Rocket 4.3 23:52:11 45° SW 23:53:44 58° WNW 23:59:47 10° N
SJ 16-02 4.1 23:53:21 10° W 23:55:28 13° NW 23:57:35 10° NNW
